RYR63CZ EFHK-EBCI

Flight info

Callsign RYR63CZ
Flight time N/A
Altitude 38000
Route NUNTO Y369 REKDO DCT KOSKA DCT KOTAM DCT KOKOR DCT KEGAB DCT ABAMI Z717 NEREL/N0343F240 T855 AGENI/N0315F180 T855 BATTY
Aircraft B738/M-SDE2E3FGHIRWXY/LB1

Departure

Time N/A
Airport Helsinki Vantaa Airport (EFHK)

Arrival

Time 2026-04-30 12:44
Airport Brussels South Charleroi Airport (EBCI)
Time Latitude Longitude Altitude Speed Heading
2026-04-30 12:19 50.93892 6.32795 30114 ft 399 kts 222°
2026-04-30 12:19 50.91922 6.29705 29697 ft 396 kts 222°
2026-04-30 12:19 50.89970 6.26646 29315 ft 393 kts 222°
2026-04-30 12:20 50.88055 6.23647 28918 ft 390 kts 222°
2026-04-30 12:20 50.86130 6.20636 28533 ft 387 kts 222°
2026-04-30 12:20 50.84220 6.17653 28145 ft 384 kts 222°
2026-04-30 12:20 50.82323 6.14693 27707 ft 383 kts 222°
2026-04-30 12:21 50.80418 6.11725 27191 ft 385 kts 222°
2026-04-30 12:21 50.78514 6.08761 26758 ft 384 kts 222°
2026-04-30 12:21 50.76615 6.05811 26397 ft 381 kts 222°
2026-04-30 12:21 50.74741 6.02868 26046 ft 378 kts 224°
2026-04-30 12:22 50.72991 5.99782 25666 ft 377 kts 227°
2026-04-30 12:22 50.71300 5.96630 25299 ft 375 kts 228°
2026-04-30 12:22 50.69615 5.93502 24937 ft 373 kts 227°
2026-04-30 12:22 50.67930 5.90394 24583 ft 371 kts 230°
2026-04-30 12:23 50.66677 5.86848 24181 ft 373 kts 252°
2026-04-30 12:23 50.66318 5.82833 23816 ft 369 kts 274°
2026-04-30 12:23 50.66782 5.78954 23424 ft 363 kts 293°
2026-04-30 12:23 50.67828 5.75359 23058 ft 359 kts 298°
2026-04-30 12:24 50.68968 5.71860 22652 ft 358 kts 300°
2026-04-30 12:24 50.70126 5.68387 22225 ft 357 kts 300°
2026-04-30 12:24 50.71276 5.64922 21842 ft 356 kts 299°
2026-04-30 12:24 50.72410 5.61462 21480 ft 354 kts 299°
2026-04-30 12:25 50.73529 5.58012 21117 ft 352 kts 298°
2026-04-30 12:25 50.74634 5.54579 20756 ft 351 kts 298°
2026-04-30 12:25 50.75738 5.51134 20400 ft 350 kts 298°
2026-04-30 12:25 50.76832 5.47708 20062 ft 348 kts 298°
2026-04-30 12:26 50.77919 5.44293 19706 ft 347 kts 298°
2026-04-30 12:26 50.79002 5.40887 19369 ft 346 kts 298°
2026-04-30 12:26 50.80078 5.37494 19042 ft 345 kts 298°
2026-04-30 12:26 50.81153 5.34102 18715 ft 343 kts 298°
2026-04-30 12:27 50.82207 5.30773 18356 ft 342 kts 297°
2026-04-30 12:27 50.83268 5.27418 17991 ft 340 kts 297°
2026-04-30 12:27 50.84324 5.24076 17647 ft 339 kts 297°
2026-04-30 12:27 50.85373 5.20746 17304 ft 337 kts 297°
2026-04-30 12:28 50.86416 5.17434 16957 ft 335 kts 297°
2026-04-30 12:28 50.87127 5.13937 16591 ft 335 kts 276°
2026-04-30 12:28 50.87047 5.10324 16266 ft 331 kts 255°
2026-04-30 12:28 50.86495 5.07352 16013 ft 328 kts 250°
2026-04-30 12:29 50.85771 5.04011 15667 ft 327 kts 249°
2026-04-30 12:29 50.85014 5.00624 15346 ft 326 kts 249°
2026-04-30 12:29 50.84261 4.97248 15057 ft 324 kts 249°
2026-04-30 12:29 50.83519 4.93889 14750 ft 322 kts 249°
2026-04-30 12:30 50.82788 4.90544 14438 ft 321 kts 249°
2026-04-30 12:30 50.82064 4.87212 14145 ft 319 kts 249°
2026-04-30 12:30 50.81607 4.85101 13925 ft 319 kts 249°
2026-04-30 12:31 50.79990 4.77620 13226 ft 315 kts 249°
2026-04-30 12:31 50.79284 4.74358 12915 ft 313 kts 249°
2026-04-30 12:31 50.78580 4.71109 12603 ft 311 kts 249°
2026-04-30 12:31 50.77880 4.67880 12288 ft 310 kts 249°
2026-04-30 12:32 50.77192 4.64712 12004 ft 307 kts 247°
2026-04-30 12:32 50.76162 4.61805 11726 ft 300 kts 228°
2026-04-30 12:32 50.74811 4.59331 11509 ft 295 kts 224°
2026-04-30 12:32 50.73447 4.56932 11250 ft 292 kts 224°
2026-04-30 12:33 50.72089 4.54547 10947 ft 292 kts 224°
2026-04-30 12:33 50.70734 4.52170 10668 ft 290 kts 224°
2026-04-30 12:33 50.69388 4.49810 10373 ft 289 kts 224°
2026-04-30 12:33 50.68044 4.47458 10104 ft 287 kts 224°
2026-04-30 12:34 50.66711 4.45117 9787 ft 285 kts 224°
2026-04-30 12:34 50.65395 4.42796 9489 ft 284 kts 224°
2026-04-30 12:34 50.64079 4.40474 9173 ft 283 kts 224°
2026-04-30 12:34 50.62764 4.38152 8804 ft 284 kts 224°
2026-04-30 12:35 50.61447 4.35823 8468 ft 285 kts 224°
2026-04-30 12:35 50.60126 4.33489 8111 ft 286 kts 224°
2026-04-30 12:35 50.58804 4.31150 7764 ft 286 kts 224°
2026-04-30 12:35 50.57483 4.28806 7434 ft 286 kts 224°
2026-04-30 12:36 50.56181 4.26496 7084 ft 283 kts 224°
2026-04-30 12:36 50.54883 4.24190 6743 ft 280 kts 224°
2026-04-30 12:36 50.53598 4.21908 6345 ft 275 kts 224°
2026-04-30 12:36 50.52348 4.19663 5990 ft 268 kts 224°
2026-04-30 12:37 50.51141 4.17476 5658 ft 262 kts 224°
2026-04-30 12:37 50.49863 4.15527 5299 ft 248 kts 203°
2026-04-30 12:37 50.48268 4.15030 5000 ft 228 kts 166°
2026-04-30 12:37 50.46779 4.15692 4716 ft 219 kts 156°
2026-04-30 12:38 50.45439 4.16631 4427 ft 208 kts 151°
2026-04-30 12:38 50.44164 4.17601 4148 ft 200 kts 151°
2026-04-30 12:38 50.42925 4.18526 3871 ft 192 kts 151°
2026-04-30 12:38 50.41742 4.19390 3615 ft 183 kts 151°
2026-04-30 12:39 50.40623 4.20280 3419 ft 178 kts 140°
2026-04-30 12:39 50.39884 4.21765 3161 ft 171 kts 110°
2026-04-30 12:39 50.39770 4.23588 2947 ft 169 kts 80°
2026-04-30 12:39 50.40226 4.25312 2796 ft 174 kts 68°
2026-04-30 12:40 50.40683 4.27047 2556 ft 167 kts 72°
2026-04-30 12:40 50.41159 4.28658 2462 ft 157 kts 68°
2026-04-30 12:40 50.41611 4.30158 2528 ft 149 kts 70°
2026-04-30 12:40 50.42057 4.31653 2305 ft 152 kts 68°
2026-04-30 12:41 50.42475 4.33120 2091 ft 142 kts 69°
2026-04-30 12:41 50.42857 4.34447 1941 ft 126 kts 70°
2026-04-30 12:41 50.43218 4.35696 1746 ft 127 kts 70°
2026-04-30 12:41 50.43580 4.36959 1672 ft 127 kts 70°
2026-04-30 12:42 50.43942 4.38229 1439 ft 128 kts 69°
2026-04-30 12:42 50.44313 4.39502 1277 ft 128 kts 69°
2026-04-30 12:42 50.44674 4.40748 1073 ft 127 kts 69°
2026-04-30 12:42 50.45044 4.42042 920 ft 133 kts 68°
2026-04-30 12:43 50.45427 4.43353 742 ft 130 kts 68°
2026-04-30 12:43 50.45804 4.44658 626 ft 126 kts 68°
2026-04-30 12:43 50.46121 4.45752 620 ft 90 kts 65°
2026-04-30 12:43 50.46324 4.46451 622 ft 54 kts 65°
2026-04-30 12:44 50.46424 4.46794 615 ft 16 kts 65°
2026-04-30 12:44 50.46492 4.46889 622 ft 13 kts
2026-04-30 12:44 50.46578 4.46845 620 ft 13 kts 335°
2026-04-30 12:44 50.46660 4.46801 612 ft 13 kts
2026-04-30 12:45 50.46714 4.46919 612 ft 15 kts 65°
2026-04-30 12:45 50.46762 4.46972 612 ft 8 kts 338°
2026-04-30 12:45 50.46809 4.46939 614 ft 5 kts 336°
2026-04-30 12:45 50.46822 4.46930 619 ft 1 kts 335°
2026-04-30 12:46 50.46823 4.46930 618 ft 0 kts 335°